Location: Cubitt Town
(51.4833°N, 0.0000°E)
Time: 01:08:11
(UTC+00:00)

Cosmos 1238 Rocket - Pass Details

Date: 15 May 2026
Orbit: 351 x 697 km, 82.9° (Epoch: 9 June)

Event Time Altitude Azimuth Distance (km) Brightness Sun altitude
Exits shadow 23:15:09 24° 108° (ESE) 1,209 4.3 -18.9°
Maximum altitude 23:16:04 26° 86° (E) 1,160 4.4 -18.9°
Drops below altitude 10° 23:19:42 10° 30° (NNE) 1,986 6.4 -19.0°
Sets 23:22:20 0° 19° (NNE) 2,955 7.7 -19.1°
